This demonstration page uses our WeatherBlox Daily Observations layout. Learn more.

Left ArrowRight Arrow

Hourly Observations for May 15, 2017

Temp ( °F °C ) Dew Point ( °F °C ) Humidity (%) Winds ( mph kmh ) Pressure ( in mb ) Visibility ( mi km ) Precip ( " mm )
12:53 am 00:53 Clear 76 24.4 56 13.3 50 50 SE 13 20 29.68 1005 10 16 0.00 0.00
1:53 am 01:53 Clear 76 24.4 55 12.8 48 48 SE 14 22 29.67 1005 10 16 0.00 0.00
2:53 am 02:53 Clear 75 23.9 55 12.8 50 50 SE 15 24 29.64 1004 10 16 0.00 0.00
3:53 am 03:53 Clear 74 23.3 55 12.8 52 52 SE 17 28 29.64 1004 10 16 0.00 0.00
4:53 am 04:53 Clear 72 22.2 56 13.3 57 57 SE 14 22 29.64 1004 10 16 0.00 0.00
5:53 am 05:53 Clear 70 21.1 57 13.9 64 64 SE 15 24 29.65 1004 10 16 0.00 0.00
6:53 am 06:53 Clear 68 20 59 15 73 73 SE 13 20 29.68 1005 10 16 0.00 0.00
7:53 am 07:53 Sunny 70 21.1 60 15.6 71 71 undefined N/A 29.71 1006 10 16 0.00 0.00
8:53 am 08:53 undefined N/A N/A N/A undefined N/A N/A N/A 0.00 0.00
9:53 am 09:53 undefined N/A N/A N/A undefined N/A N/A N/A 0.00 0.00
10:53 am 10:53 Sunny 82 27.8 56 13.3 41 41 SSE 14 22 29.70 1006 10 16 0.00 0.00
11:53 am 11:53 Sunny 86 30 51 10.6 30 30 SE 10 17 29.69 1005 10 16 0.00 0.00
12:53 pm 12:53 Sunny 90 32.2 45 7.2 21 21 SSE 15 24 29.66 1005 10 16 0.00 0.00
1:53 pm 13:53 Sunny 93 33.9 22 -5.6 7 7 WSW 10 17 29.64 1004 10 16 0.00 0.00
2:53 pm 14:53 Sunny 95 35 22 -5.6 7 7 VRB 3 6 29.62 1003 10 16 0.00 0.00
3:53 pm 15:53 Sunny 95 35 23 -5 7 7 SW 10 17 29.58 1002 10 16 0.00 0.00
4:53 pm 16:53 Sunny 97 36.1 33 0.6 10 10 SSE 8 13 29.56 1001 10 16 0.00 0.00
5:53 pm 17:53 Sunny 95 35 50 10 22 22 SE 13 20 29.55 1001 10 16 0.00 0.00
6:53 pm 18:53 Sunny 90 32.2 56 13.3 32 32 ESE 17 28 29.56 1001 10 16 0.00 0.00
7:53 pm 19:53 Sunny 89 31.7 58 14.4 35 35 SE 17 28 29.56 1001 10 16 0.00 0.00
8:53 pm 20:53 Clear 82 27.8 61 16.1 49 49 SE 20 31 29.53 1000 10 16 0.00 0.00
9:53 pm 21:53 Clear 78 25.6 63 17.2 60 60 SE 20 31 29.56 1001 9 14 0.00 0.00
10:53 pm 22:53 Clear 75 23.9 65 18.3 71 71 SE 22 35 29.62 1003 10 16 0.00 0.00
11:53 pm 23:53 Clear 74 23.3 66 18.9 76 76 SE 16 26 29.62 1003 8 13 0.00 0.00

Powered by AerisWeather